Hourly Data Report for January 02, 2018

All times are specified in Local Standard Time (LST). Add 1 hour to adjust for Daylight Saving Time where and when it is observed.

YARMOUTH A
NOVA SCOTIA

43°49'37.000" N
66°05'17.000" W
42.90 m
8206495
71603
YQI

Download Data

Hourly Data (January 2018)
Hourly Data Report for January 2, 2018
Temp Definition
°C
Dew Point Temp Definition
°C
Rel Hum Definition
%
Wind Dir Definition
10's deg

Wind Spd Definition
km/h
Visibility Definition
km
Stn Press Definition
kPa
Hmdx Definition


Wind Chill Definition


Weather Definition


TIME
00:00 Legend Double Dagger -11.0 -13.7 80 32 24 4.0 101.15   -20 Snow,Blowing Snow
01:00 Legend Double Dagger -11.1 -13.9 80 32 23 3.2 101.11   -20 Snow,Blowing Snow
02:00 Legend Double Dagger -11.2 -13.9 81 34 22 3.2 101.13   -20 Snow,Blowing Snow
03:00 Legend Double Dagger -11.1 -13.9 80 33 19 3.2 101.14   -19 Snow,Blowing Snow
04:00 Legend Double Dagger -10.8 -14.0 77 33 23 3.2 101.13   -19 Snow,Blowing Snow
05:00 Legend Double Dagger -10.6 -14.1 76 32 25 3.2 101.11   -20 Snow,Blowing Snow
06:00 Legend Double Dagger -10.8 -13.7 80 32 22 3.2 101.15   -19 Snow,Blowing Snow
07:00 Legend Double Dagger -10.7 -13.3 81 33 23 1.2 101.20   -19 Snow,Blowing Snow
08:00 Legend Double Dagger -10.5 -13.4 80 33 23 0.8 101.23   -19 Moderate Snow Showers
09:00 Legend Double Dagger -9.9 -14.1 72 32 19 4.8 101.25   -18 Snow Showers
10:00 Legend Double Dagger -9.8 -15.1 66 30 31 9.7 101.30   -19 Snow Showers
11:00 Legend Double Dagger -9.9 -13.5 75 31 25 4.8 101.34   -19 Snow Showers
12:00 Legend Double Dagger -10.0 -14.7 69 31 30 8.1 101.29   -20 Snow Showers
13:00 Legend Double Dagger -9.5 -13.1 76 31 23 3.2 101.22   -18 Snow Showers
14:00 Legend Double Dagger -9.4 -13.1 74 31 21 4.0 101.22   -17 Snow Showers
15:00 Legend Double Dagger -9.2 -12.1 79 32 21 4.8 101.23   -17 Snow Showers
16:00 Legend Double Dagger -8.6 -12.1 76 31 23 1.6 101.26   -17 Snow Showers
17:00 Legend Double Dagger -8.6 -11.8 78 31 18 4.8 101.29   -16 Snow Showers
18:00 Legend Double Dagger -8.4 -12.0 75 31 21 8.1 101.32   -16 Snow Showers
19:00 Legend Double Dagger -8.0 -13.4 65 30 25 12.9 101.38   -16 Snow Showers
20:00 Legend Double Dagger -7.8 -13.2 65 32 28 12.9 101.43   -16 Snow Showers
21:00 Legend Double Dagger -7.3 -12.8 65 30 27 12.9 101.46   -16 Snow Showers
22:00 Legend Double Dagger -7.4 -12.8 66 31 27 24.1 101.49   -16 LegendNANA
23:00 Legend Double Dagger -6.6 -11.8 67 32 21 24.1 101.48   -14 Mostly Cloudy

Notes on Data Quality.

Legend

  • E = Estimated
  • M = Missing
  • NA = Not Available
  • ‡ = Partner data that is not subject to review by the National Climate Archives
Date modified: